CW9804 Weather Reports


Display with metric or nautical units.
time (UTC)temp
F
wind
direction
speed
MPH
gust
MPH
rain 1hr
in
rain 24hr
in
rain mn
in
humidity
%
barometer
mb
20260831050412 61 174 0.0 0.0 0.00 0.00 0.00 90 1016.0
20260831044912 61 174 1.0 2.0 0.00 0.00 0.00 89 1015.9
20260831043412 60 174 0.0 2.0 0.00 0.00 0.00 91 1016.1
20260831041912 60 174 0.0 0.0 0.00 0.00 0.00 91 1016.1
20260831040412 60 174 0.0 0.0 0.00 0.00 0.00 90 1016.1
20260831034912 60 174 0.0 0.0 0.00 0.00 0.00 90 1016.1
20260831033412 61 174 0.0 0.0 0.00 0.00 0.00 89 1016.1
20260831031912 62 174 0.0 0.0 0.00 0.00 0.00 88 1016.1
20260831030412 62 174 0.0 0.0 0.00 0.00 0.00 88 1016.2
20260831024913 62 174 0.0 1.0 0.00 0.00 0.00 87 1016.2
20260831023412 63 174 0.0 1.0 0.00 0.00 0.00 86 1016.2
20260831021912 63 174 0.0 3.0 0.00 0.00 0.00 86 1016.4
20260831020412 63 196 0.0 3.0 0.00 0.00 0.00 86 1016.5
20260831014912 63 196 0.0 1.0 0.00 0.00 0.00 86 1016.5
20260831013412 63 196 0.0 0.0 0.00 0.00 0.00 86 1016.6
20260831011912 63 196 0.0 0.0 0.00 0.00 0.00 87 1016.7
20260831010412 63 196 0.0 0.0 0.00 0.00 0.00 86 1016.7
20260831004912 64 196 0.0 0.0 0.00 0.00 0.00 85 1016.9
20260831003412 64 196 0.0 0.0 0.00 0.00 0.00 85 1017.0
20260831001912 64 196 0.0 0.0 0.00 0.00 0.00 85 1017.0
20260831000412 64 196 0.0 0.0 0.00 0.00 0.00 84 1017.1
20260830234911 65 196 0.0 0.0 0.00 0.00 0.00 83 1017.1
20260830233411 64 196 0.0 0.0 0.00 0.00 0.00 84 1017.2
20260830231912 64 196 0.0 0.0 0.00 0.00 0.00 84 1017.2
20260830230411 65 196 0.0 0.0 0.00 0.00 0.00 83 1017.2
20260830224914 65 196 0.0 0.0 0.00 0.00 0.00 84 1017.3
20260830223414 65 196 0.0 0.0 0.00 0.00 0.00 83 1017.4
20260830221914 66 196 0.0 0.0 0.00 0.00 0.00 81 1017.4
20260830220413 66 196 0.0 0.0 0.00 0.00 0.00 81 1017.3
20260830214913 67 196 0.0 0.0 0.00 0.00 0.00 80 1017.6
20260830213413 67 196 0.0 0.0 0.00 0.00 0.00 80 1017.6
20260830211913 66 196 0.0 0.0 0.00 0.00 0.00 81 1017.4
20260830210413 67 196 0.0 0.0 0.00 0.00 0.00 79 1017.4
20260830204912 68 196 0.0 0.0 0.00 0.00 0.00 78 1017.3
20260830203412 68 196 1.0 2.0 0.00 0.00 0.00 78 1017.3
20260830201912 68 196 0.0 0.0 0.00 0.00 0.00 79 1017.2
20260830200412 69 196 0.0 0.0 0.00 0.00 0.00 77 1017.2
20260830194912 71 167 1.0 4.0 0.00 0.00 0.00 73 1017.1
20260830193412 71 169 0.0 2.0 0.00 0.00 0.00 74 1017.1
20260830191912 70 169 1.0 2.0 0.00 0.00 0.00 75 1016.9
20260830190411 70 169 0.0 0.0 0.00 0.00 0.00 76 1016.7
20260830184911 71 169 1.0 2.0 0.00 0.00 0.00 75 1016.7
20260830183411 72 169 0.0 1.0 0.00 0.00 0.00 72 1016.5
20260830181911 75 169 1.0 3.0 0.00 0.00 0.00 66 1016.3
20260830180411 75 153 2.0 4.0 0.00 0.00 0.00 64 1016.0
20260830174912 76 184 1.0 3.0 0.00 0.00 0.00 65 1015.9
20260830173411 76 198 2.0 4.0 0.00 0.00 0.00 64 1015.6
20260830171911 79 111 1.0 2.0 0.00 0.00 0.00 61 1015.5
20260830170411 82 111 1.0 2.0 0.00 0.00 0.00 58 1015.7
20260830164911 85 100 1.0 3.0 0.00 0.00 0.00 55 1015.8
20260830163411 85 86 1.0 3.0 0.00 0.00 0.00 53 1015.8
20260830161911 86 69 1.0 3.0 0.00 0.00 0.00 53 1015.9
20260830160411 86 66 2.0 3.0 0.00 0.00 0.00 50 1016.1
20260830154912 86 55 3.0 7.0 0.00 0.00 0.00 50 1016.0
20260830153413 86 79 2.0 5.0 0.00 0.00 0.00 51 1016.3
20260830151911 86 60 3.0 6.0 0.00 0.00 0.00 49 1016.3
20260830150411 86 66 2.0 4.0 0.00 0.00 0.00 51 1016.4
20260830144911 86 113 2.0 4.0 0.00 0.00 0.00 52 1016.4
20260830143411 87 77 1.0 4.0 0.00 0.00 0.00 50 1016.6
20260830141910 85 32 0.0 3.0 0.00 0.00 0.00 51 1016.5
20260830140410 85 52 3.0 5.0 0.00 0.00 0.00 51 1016.7
20260830134910 85 78 5.0 9.0 0.00 0.00 0.00 50 1017.0
20260830133410 85 46 2.0 3.0 0.00 0.00 0.00 51 1017.1
20260830131910 85 52 2.0 6.0 0.00 0.00 0.00 52 1017.2
20260830130410 85 47 6.0 9.0 0.00 0.00 0.00 54 1017.4
20260830124912 85 76 5.0 7.0 0.00 0.00 0.00 53 1017.4
20260830123412 83 69 5.0 9.0 0.00 0.00 0.00 56 1017.3
20260830121912 83 85 2.0 4.0 0.00 0.00 0.00 55 1017.5
20260830120411 83 107 4.0 8.0 0.00 0.00 0.00 57 1017.7
20260830114911 82 73 0.0 4.0 0.00 0.00 0.00 55 1017.8
20260830113411 81 44 5.0 10.0 0.00 0.00 0.00 57 1017.8
20260830111911 81 58 3.0 9.0 0.00 0.00 0.00 58 1018.0
20260830110411 80 69 2.0 6.0 0.00 0.00 0.00 59 1018.1
20260830104911 79 40 2.0 6.0 0.00 0.00 0.00 61 1018.3
20260830103411 78 46 4.0 5.0 0.00 0.00 0.00 61 1018.4
20260830101911 78 55 3.0 6.0 0.00 0.00 0.00 61 1018.5
20260830100411 77 59 3.0 4.0 0.00 0.00 0.00 61 1018.7
20260830094910 77 48 4.0 5.0 0.00 0.00 0.00 63 1019.0
20260830093410 76 67 2.0 5.0 0.00 0.52 0.00 64 1019.0
20260830091910 75 5 1.0 4.0 0.00 0.00 0.00 64 1018.9
20260830090410 73 13 0.0 3.0 0.00 0.00 0.00 66 1019.0
20260830084911 72 32 2.0 3.0 0.00 0.00 0.00 69 1018.9
20260830083410 72 360 0.0 1.0 0.00 0.00 0.00 68 1018.8
20260830081910 71 360 0.0 4.0 0.00 0.00 0.00 70 1018.9
20260830080410 71 314 2.0 4.0 0.00 0.00 0.00 71 1019.0
20260830074911 70 320 2.0 3.0 0.00 0.00 0.00 72 1018.8
20260830073410 69 317 2.0 4.0 0.00 0.00 0.00 73 1018.7
20260830071910 67 295 1.0 3.0 0.00 0.00 0.00 77 1018.6
20260830070410 66 269 0.0 0.0 0.00 0.00 0.00 82 1018.4
20260830064910 64 269 0.0 0.0 0.00 0.00 0.00 83 1018.3
20260830063410 63 269 0.0 2.0 0.00 0.00 0.00 84 1018.3
20260830061910 63 267 0.0 0.0 0.00 0.00 0.00 84 1018.4